Moosonee, Ontario

7:40 AM EDT on September 24, 2017 (GMT -0400)
Moosonee

Weather History for CYMO - August, 2014

Change the Weather History Date:

Sunday, August 10, 2014

  Actual Average Record
Temperature  
Mean Temperature 68 °F -  
Max Temperature 86 °F 65 °F 86 °F (2002)
Min Temperature 51 °F 44 °F 37 °F (1996)
Cooling Degree Days 4    
Growing Degree Days 18 (Base 50)    
Moisture  
Dew Point 54 °F    
Average Humidity 87    
Maximum Humidity 100    
Minimum Humidity 43    
Precipitation  
Precipitation 0.00 in 0.11 in - ()
Sea Level Pressure  
Sea Level Pressure 30.06 in    
Wind  
Wind Speed 4 mph ()    
Max Wind Speed 14 mph    
Max Gust Speed 20 mph    
Visibility 4.8 miles    
Events Fog    
Averages and records for this station are not official NWS values.
T = Trace of Precipitation, MM = Missing Value Source: Averaged Metar Reports

Daily Weather History Graph

Daily Weather History Graph

Search for Another Location

Airport or City:

Trip Planner

Search our weather history database for the weather conditions in past years. The results will help you decide how hot, cold, wet, or windy it might be!

Date:

Astronomy

Aug. 10, 2014 Rise Set
Actual Time 6:01 AM EDT 8:53 PM EDT
Civil Twilight 5:22 AM EDT 9:31 PM EDT
Nautical Twilight 4:32 AM EDT 10:21 PM EDT
Astronomical Twilight 3:30 AM EDT 11:22 PM EDT
Moon 8:29 PM EDT (8/10) 5:57 AM EDT (8/10)
Length of Visible Light 16h 09m
Length of Day
14h 52m
Full, 100% of the Moon is Illuminated
Aug 10
Full
Aug 10
Full
Aug 17
Last Quarter
Aug 25
New
Sep 2
First Quarter

Hourly Weather History & Observations

Time (EDT) Temp. Heat Index Dew Point Humidity Pressure Visibility Wind Dir Wind Speed Gust Speed Precip Events Conditions
12:00 AM 51.8 °F - 51.8 °F 100% 30.15 in 9.0 mi NE 3.5 mph - N/A   Overcast
2:00 AM 51.8 °F - 50.0 °F 94% 30.13 in 9.0 mi North 3.5 mph - N/A   Overcast
3:00 AM 51.8 °F - 51.8 °F 100% 30.12 in 7.0 mi North 3.5 mph - N/A   Overcast
3:40 AM 51.8 °F - 51.8 °F 100% 30.12 in 5.0 mi North 3.5 mph - N/A   Overcast
4:00 AM 51.8 °F - 51.8 °F 100% 30.11 in 5.0 mi Calm Calm - N/A   Overcast
4:01 AM 51.8 °F - 51.8 °F 100% 30.11 in 6.0 mi Calm Calm - N/A   Overcast
4:10 AM 51.8 °F - 51.8 °F 100% 30.11 in 6.0 mi Calm Calm - N/A   Overcast
4:11 AM 51.8 °F - 51.8 °F 100% 30.11 in 5.0 mi Calm Calm - N/A   Overcast
4:20 AM 53.6 °F - 51.8 °F 94% 30.11 in 2.2 mi Variable 2.3 mph - N/A   Overcast
4:22 AM 53.6 °F - 51.8 °F 94% 30.11 in 1.8 mi Variable 3.5 mph - N/A   Overcast
4:27 AM 53.6 °F - 51.8 °F 94% 30.11 in 0.8 mi South 4.6 mph - N/A   Mist
5:00 AM 51.8 °F - 51.8 °F 100% 30.11 in 0.6 mi SSW 3.5 mph - N/A   Mist
5:14 AM 51.8 °F - 51.8 °F 100% 30.11 in 1.0 mi South 3.5 mph - N/A   Mist
5:21 AM 51.8 °F - 51.8 °F 100% 30.11 in 0.8 mi South 2.3 mph - N/A   Mist
5:28 AM 51.8 °F - 51.8 °F 100% 30.11 in 1.0 mi South 5.8 mph - N/A   Mist
5:37 AM 51.8 °F - 51.8 °F 100% 30.10 in 0.8 mi SSE 4.6 mph - N/A   Mist
6:00 AM 51.8 °F - 51.8 °F 100% 30.10 in 0.5 mi SE 4.6 mph - N/A Fog Fog
6:10 AM 51.8 °F - 51.8 °F 100% 30.09 in 1.0 mi ESE 5.8 mph - N/A   Mist
6:18 AM 51.8 °F - 51.8 °F 100% 30.09 in 2.2 mi ESE 5.8 mph - N/A   Overcast
6:20 AM 51.8 °F - 51.8 °F 100% 30.09 in 1.8 mi ESE 5.8 mph - N/A   Overcast
6:26 AM 51.8 °F - 51.8 °F 100% 30.09 in 0.8 mi ESE 5.8 mph - N/A   Mist
6:37 AM 51.8 °F - 51.8 °F 100% 30.09 in 1.0 mi SE 6.9 mph - N/A   Mist
6:42 AM 51.8 °F - 51.8 °F 100% 30.09 in 0.8 mi ESE 6.9 mph - N/A   Mist
7:00 AM 51.8 °F - 51.8 °F 100% 30.09 in 0.6 mi ESE 5.8 mph - N/A   Mist
7:07 AM 51.8 °F - 51.8 °F 100% 30.09 in 1.0 mi ESE 4.6 mph - N/A   Mist
7:24 AM 53.6 °F - 51.8 °F 94% 30.09 in 0.8 mi SSE 6.9 mph - N/A   Mist
7:34 AM 53.6 °F - 51.8 °F 94% 30.09 in 1.0 mi SSE 5.8 mph - N/A   Mist
7:56 AM 53.6 °F - 53.6 °F 100% 30.09 in 2.0 mi South 4.6 mph - N/A   Overcast
8:00 AM 53.6 °F - 53.6 °F 100% 30.08 in 2.5 mi SSE 4.6 mph - N/A   Overcast
8:01 AM 53.6 °F - 53.6 °F 100% 30.08 in 3.0 mi SSE 4.6 mph - N/A   Overcast
8:09 AM 53.6 °F - 53.6 °F 100% 30.08 in 6.0 mi SSE 5.8 mph - N/A   Overcast
9:00 AM 57.2 °F - 53.6 °F 88% 30.07 in 9.0 mi SSE 4.6 mph - N/A   Overcast
9:12 AM 57.2 °F - 53.6 °F 88% 30.07 in 9.0 mi SE 4.6 mph - N/A   Mostly Cloudy
9:22 AM 59.0 °F - 55.4 °F 88% 30.07 in 9.0 mi South 5.8 mph - N/A   Scattered Clouds
10:00 AM 62.6 °F - 57.2 °F 82% 30.06 in 9.0 mi Variable 2.3 mph - N/A   Partly Cloudy
11:00 AM 68.0 °F - 59.0 °F 73% 30.04 in 9.0 mi South 3.5 mph - N/A   Partly Cloudy
12:00 PM 73.4 °F - 62.6 °F 69% 30.02 in 9.0 mi South 3.5 mph - N/A   Clear
2:00 PM 84.2 °F 86.6 °F 66.2 °F 55% 29.98 in 9.0 mi SSW 9.2 mph - N/A   Clear
3:00 PM 86.0 °F 87.3 °F 64.4 °F 48% 29.95 in 9.0 mi SSW 10.4 mph - N/A   Clear
4:00 PM 86.0 °F 87.3 °F 64.4 °F 48% 29.94 in 9.0 mi SSW 12.7 mph 19.6 mph N/A   Clear
5:00 PM 86.0 °F 86.1 °F 60.8 °F 43% 29.91 in 9.0 mi SW 13.8 mph - N/A   Clear
6:00 PM 86.0 °F 86.1 °F 60.8 °F 43% 29.90 in 9.0 mi SW 12.7 mph - N/A   Clear
8:00 PM 78.8 °F - 55.4 °F 44% 29.91 in 9.0 mi WSW 8.1 mph - N/A   Clear
9:00 PM 77.0 °F - 55.4 °F 47% 29.91 in 9.0 mi SW 6.9 mph - N/A   Clear
10:00 PM 71.6 °F - 59.0 °F 64% 29.91 in 9.0 mi SSW 8.1 mph - N/A   Partly Cloudy
11:00 PM 73.4 °F - 59.0 °F 61% 29.90 in 9.0 mi SSW 10.4 mph - N/A   Clear